BAW33C EGJJ-EGPH

Flight info

Callsign BAW33C
Flight time 1h 13m
Altitude 37000
Route SKERY L22 EMWIP P16 FIMCA DCT BHD DCT WIGGU DCT AZCAL DCT AVTIC DCT ANJAK N38 NOKIN UP16 RIBEL DCT INPIP
Aircraft A320/M-SDE3FGHIRWY/LB1

Departure

Time 2026-05-04 20:29
Airport Jersey Airport (EGJJ)

Arrival

Time 2026-05-04 21:42
Airport Edinburgh Airport (EGPH)
Time Latitude Longitude Altitude Speed Heading
2026-05-04 20:06 49.20491 -2.19617 289 ft 0 kts 15°
2026-05-04 20:20 49.20481 -2.19621 284 ft 4 kts 12°
2026-05-04 20:20 49.20455 -2.19625 292 ft 4 kts 348°
2026-05-04 20:21 49.20434 -2.19608 288 ft 4 kts 296°
2026-05-04 20:21 49.20432 -2.19599 289 ft 0 kts 285°
2026-05-04 20:25 49.20434 -2.19615 287 ft 3 kts 285°
2026-05-04 20:25 49.20442 -2.19656 284 ft 6 kts 284°
2026-05-04 20:25 49.20440 -2.19745 284 ft 11 kts 265°
2026-05-04 20:26 49.20433 -2.19860 284 ft 10 kts 264°
2026-05-04 20:26 49.20469 -2.19921 284 ft 9 kts 354°
2026-05-04 20:26 49.20517 -2.19980 284 ft 11 kts 287°
2026-05-04 20:26 49.20540 -2.20098 284 ft 13 kts 287°
2026-05-04 20:27 49.20568 -2.20239 286 ft 15 kts 286°
2026-05-04 20:27 49.20599 -2.20400 284 ft 17 kts 286°
2026-05-04 20:27 49.20626 -2.20564 284 ft 16 kts 277°
2026-05-04 20:27 49.20647 -2.20702 284 ft 12 kts 323°
2026-05-04 20:28 49.20702 -2.20676 283 ft 9 kts 63°
2026-05-04 20:28 49.20715 -2.20536 283 ft 31 kts 83°
2026-05-04 20:28 49.20775 -2.19828 285 ft 99 kts 82°
2026-05-04 20:28 49.20885 -2.18511 314 ft 143 kts 81°
2026-05-04 20:29 49.21022 -2.17054 765 ft 140 kts 77°
2026-05-04 20:29 49.21164 -2.15569 1221 ft 142 kts 81°
2026-05-04 20:29 49.21282 -2.14070 1680 ft 142 kts 81°
2026-05-04 20:29 49.21445 -2.12554 2069 ft 150 kts 72°
2026-05-04 20:30 49.21861 -2.10977 2191 ft 172 kts 60°
2026-05-04 20:30 49.22643 -2.09404 2347 ft 199 kts 44°
2026-05-04 20:30 49.23828 -2.08090 2635 ft 224 kts 26°
2026-05-04 20:30 49.25368 -2.07363 3058 ft 247 kts
2026-05-04 20:31 49.27114 -2.07546 3795 ft 258 kts 346°
2026-05-04 20:31 49.28746 -2.08733 4657 ft 265 kts 324°
2026-05-04 20:31 49.29986 -2.10841 5493 ft 272 kts 301°
2026-05-04 20:31 49.30727 -2.13533 6365 ft 276 kts 292°
2026-05-04 20:32 49.31487 -2.16254 7168 ft 280 kts 297°
2026-05-04 20:32 49.32422 -2.18886 7978 ft 282 kts 303°
2026-05-04 20:32 49.33539 -2.21381 8785 ft 286 kts 309°
2026-05-04 20:32 49.34834 -2.23714 9555 ft 291 kts 314°
2026-05-04 20:33 49.36304 -2.25892 10246 ft 296 kts 319°
2026-05-04 20:33 49.37910 -2.28041 10515 ft 318 kts 319°
2026-05-04 20:33 49.39633 -2.30357 10717 ft 339 kts 319°
2026-05-04 20:33 49.41428 -2.32773 11255 ft 347 kts 319°
2026-05-04 20:34 49.43254 -2.35233 11910 ft 351 kts 320°
2026-05-04 20:34 49.45100 -2.37712 12566 ft 355 kts 320°
2026-05-04 20:34 49.46967 -2.40217 13225 ft 359 kts 320°
2026-05-04 20:34 49.48829 -2.42799 13883 ft 363 kts 319°
2026-05-04 20:35 49.50689 -2.45450 14461 ft 367 kts 318°
2026-05-04 20:35 49.52558 -2.48159 15019 ft 371 kts 317°
2026-05-04 20:35 49.54439 -2.50897 15596 ft 374 kts 317°
2026-05-04 20:35 49.56337 -2.53654 16187 ft 377 kts 317°
2026-05-04 20:36 49.58254 -2.56425 16776 ft 380 kts 317°
2026-05-04 20:36 49.60189 -2.59215 17372 ft 383 kts 317°
2026-05-04 20:36 49.62142 -2.62034 17957 ft 386 kts 317°
2026-05-04 20:36 49.64109 -2.64877 18519 ft 389 kts 317°
2026-05-04 20:37 49.66092 -2.67741 19050 ft 392 kts 317°
2026-05-04 20:37 49.68095 -2.70634 19595 ft 396 kts 317°
2026-05-04 20:37 49.70115 -2.73566 20060 ft 401 kts 316°
2026-05-04 20:37 49.72158 -2.76540 20546 ft 406 kts 317°
2026-05-04 20:38 49.74217 -2.79534 21100 ft 408 kts 317°
2026-05-04 20:38 49.76295 -2.82555 21609 ft 411 kts 317°
2026-05-04 20:38 49.78361 -2.85557 22086 ft 415 kts 317°
2026-05-04 20:38 49.80475 -2.88629 22550 ft 419 kts 317°
2026-05-04 20:39 49.82607 -2.91732 23012 ft 423 kts 317°
2026-05-04 20:39 49.84756 -2.94868 23470 ft 426 kts 317°
2026-05-04 20:39 49.86919 -2.98040 23865 ft 430 kts 316°
2026-05-04 20:39 49.89097 -3.01240 24240 ft 433 kts 316°
2026-05-04 20:40 49.91289 -3.04466 24607 ft 436 kts 316°
2026-05-04 20:40 49.93501 -3.07724 24965 ft 439 kts 316°
2026-05-04 20:40 49.95722 -3.10999 25333 ft 442 kts 316°
2026-05-04 20:40 49.97957 -3.14295 25691 ft 445 kts 315°
2026-05-04 20:41 50.00042 -3.17859 26037 ft 446 kts 306°
2026-05-04 20:41 50.01753 -3.21878 26401 ft 447 kts 298°
2026-05-04 20:41 50.03371 -3.26018 26744 ft 450 kts 303°
2026-05-04 20:41 50.05342 -3.29825 27094 ft 454 kts 313°
2026-05-04 20:42 50.07700 -3.33123 27431 ft 458 kts 322°
2026-05-04 20:42 50.10392 -3.35809 27772 ft 461 kts 332°
2026-05-04 20:42 50.13252 -3.38089 28108 ft 463 kts 333°
2026-05-04 20:42 50.16127 -3.40388 28432 ft 466 kts 332°
2026-05-04 20:43 50.19011 -3.42709 28782 ft 468 kts 332°
2026-05-04 20:43 50.21911 -3.45051 29110 ft 470 kts 332°
2026-05-04 20:43 50.24863 -3.47268 29426 ft 472 kts 338°
2026-05-04 20:43 50.27992 -3.48827 29811 ft 473 kts 348°
2026-05-04 20:44 50.30135 -3.49446 30111 ft 472 kts 354°
2026-05-04 20:44 50.33395 -3.49738 30502 ft 469 kts
2026-05-04 20:44 50.36651 -3.49549 30941 ft 467 kts
2026-05-04 20:44 50.39882 -3.49350 31417 ft 463 kts
2026-05-04 20:45 50.43082 -3.48994 31932 ft 459 kts
2026-05-04 20:45 50.46246 -3.48456 32453 ft 455 kts
2026-05-04 20:45 50.49372 -3.47805 32983 ft 451 kts
2026-05-04 20:45 50.52468 -3.47112 33512 ft 448 kts
2026-05-04 20:46 50.55546 -3.46435 34020 ft 444 kts
2026-05-04 20:46 50.58602 -3.45793 34438 ft 442 kts
2026-05-04 20:46 50.61648 -3.45186 34767 ft 441 kts
2026-05-04 20:46 50.64690 -3.44605 35061 ft 441 kts
2026-05-04 20:47 50.67737 -3.44040 35341 ft 441 kts
2026-05-04 20:47 50.70782 -3.43480 35620 ft 441 kts
2026-05-04 20:47 50.73829 -3.42911 35894 ft 441 kts
2026-05-04 20:47 50.76833 -3.42343 36009 ft 442 kts
2026-05-04 20:48 50.83014 -3.41158 36028 ft 451 kts
2026-05-04 20:48 50.89260 -3.39946 36034 ft 453 kts
2026-05-04 20:49 50.95516 -3.38737 36037 ft 453 kts
2026-05-04 20:49 51.01779 -3.37526 36043 ft 453 kts
2026-05-04 20:50 51.08039 -3.36311 36049 ft 453 kts
2026-05-04 20:50 51.14299 -3.35090 36052 ft 453 kts
2026-05-04 20:51 51.20566 -3.33869 36053 ft 453 kts
2026-05-04 20:51 51.26824 -3.32621 36045 ft 454 kts
2026-05-04 20:52 51.33089 -3.31338 36049 ft 454 kts
2026-05-04 20:52 51.39313 -3.30067 36053 ft 454 kts
2026-05-04 20:53 51.45587 -3.28795 36057 ft 455 kts
2026-05-04 20:53 51.51864 -3.27525 36059 ft 455 kts
2026-05-04 20:54 51.58140 -3.26247 36066 ft 455 kts
2026-05-04 20:54 51.64417 -3.24955 36072 ft 455 kts
2026-05-04 20:55 51.70688 -3.23664 36074 ft 454 kts
2026-05-04 20:55 51.76955 -3.22369 36069 ft 454 kts
2026-05-04 20:56 51.83208 -3.21082 36079 ft 452 kts
2026-05-04 20:56 51.89441 -3.19786 36081 ft 451 kts
2026-05-04 20:57 51.95692 -3.18884 36083 ft 451 kts
2026-05-04 20:57 52.01917 -3.18540 36076 ft 450 kts
2026-05-04 20:58 52.08172 -3.18239 36082 ft 449 kts
2026-05-04 20:58 52.14412 -3.17798 36082 ft 449 kts
2026-05-04 20:59 52.20641 -3.17280 36083 ft 448 kts
2026-05-04 20:59 52.26864 -3.16763 36081 ft 448 kts
2026-05-04 21:00 52.33087 -3.16283 36090 ft 447 kts
2026-05-04 21:00 52.39305 -3.15804 36096 ft 447 kts
2026-05-04 21:01 52.45521 -3.15329 36090 ft 447 kts
2026-05-04 21:01 52.51734 -3.14856 36099 ft 446 kts
2026-05-04 21:02 52.57928 -3.14385 36103 ft 445 kts
2026-05-04 21:02 52.64101 -3.13891 36101 ft 443 kts
2026-05-04 21:03 52.70241 -3.13169 36098 ft 441 kts 11°
2026-05-04 21:03 52.75982 -3.10030 36098 ft 437 kts 26°
2026-05-04 21:04 52.81476 -3.05727 36100 ft 437 kts 26°
2026-05-04 21:04 52.86967 -3.01419 36099 ft 437 kts 26°
2026-05-04 21:05 52.92568 -2.97510 36094 ft 438 kts 21°
2026-05-04 21:05 52.98287 -2.94039 36079 ft 438 kts 21°
2026-05-04 21:06 53.04008 -2.90548 36100 ft 438 kts 21°
2026-05-04 21:06 53.09727 -2.87034 36102 ft 438 kts 21°
2026-05-04 21:07 53.15435 -2.83494 36084 ft 438 kts 21°
2026-05-04 21:07 53.21140 -2.79947 36089 ft 438 kts 21°
2026-05-04 21:08 53.26851 -2.76410 36091 ft 438 kts 20°
2026-05-04 21:08 53.32565 -2.72853 36097 ft 438 kts 21°
2026-05-04 21:09 53.38280 -2.69265 36096 ft 438 kts 21°
2026-05-04 21:09 53.43953 -2.65696 36084 ft 439 kts 21°
2026-05-04 21:10 53.49664 -2.62108 36083 ft 439 kts 21°
2026-05-04 21:10 53.55384 -2.58509 36079 ft 439 kts 21°
2026-05-04 21:11 53.61101 -2.54907 36082 ft 439 kts 21°
2026-05-04 21:11 53.66820 -2.51273 36080 ft 439 kts 21°
2026-05-04 21:12 53.72510 -2.47649 36084 ft 440 kts 20°
2026-05-04 21:12 53.78235 -2.43994 36080 ft 440 kts 20°
2026-05-04 21:13 53.83961 -2.40340 36084 ft 439 kts 20°
2026-05-04 21:13 53.89653 -2.36687 36097 ft 436 kts 20°
2026-05-04 21:14 53.95309 -2.33040 36095 ft 434 kts 20°
2026-05-04 21:14 53.98202 -2.31616 36093 ft 433 kts
2026-05-04 21:14 54.01188 -2.31098 36097 ft 431 kts 359°
2026-05-04 21:15 54.07069 -2.32751 36086 ft 429 kts 339°
2026-05-04 21:15 54.12601 -2.36563 36086 ft 428 kts 338°
2026-05-04 21:16 54.17998 -2.40304 36062 ft 419 kts 338°
2026-05-04 21:16 54.23311 -2.43991 36066 ft 407 kts 337°
2026-05-04 21:17 54.28542 -2.47642 36069 ft 405 kts 337°
2026-05-04 21:17 54.33757 -2.51290 36067 ft 405 kts 337°
2026-05-04 21:18 54.39038 -2.54989 36068 ft 414 kts 337°
2026-05-04 21:18 54.44383 -2.58750 36071 ft 416 kts 337°
2026-05-04 21:19 54.49743 -2.62532 36090 ft 416 kts 336°
2026-05-04 21:19 54.55097 -2.66336 36088 ft 416 kts 336°
2026-05-04 21:20 54.60451 -2.70144 36082 ft 416 kts 336°
2026-05-04 21:20 54.65798 -2.73944 36081 ft 416 kts 336°
2026-05-04 21:21 54.71148 -2.77745 36084 ft 416 kts 336°
2026-05-04 21:21 54.73821 -2.79651 35879 ft 417 kts 336°
2026-05-04 21:21 54.76531 -2.81591 34992 ft 425 kts 336°
2026-05-04 21:22 54.79282 -2.83565 34201 ft 430 kts 335°
2026-05-04 21:22 54.82052 -2.85563 33391 ft 432 kts 335°
2026-05-04 21:22 54.84836 -2.87578 32509 ft 436 kts 335°
2026-05-04 21:22 54.87649 -2.89612 31544 ft 440 kts 335°
2026-05-04 21:23 54.90487 -2.91664 30614 ft 444 kts 335°
2026-05-04 21:23 54.93345 -2.93732 29636 ft 446 kts 335°
2026-05-04 21:23 54.96215 -2.95806 28622 ft 447 kts 335°
2026-05-04 21:23 54.99087 -2.97879 27659 ft 447 kts 335°
2026-05-04 21:24 55.01963 -2.99954 26718 ft 447 kts 335°
2026-05-04 21:24 55.04790 -3.02000 25801 ft 446 kts 334°
2026-05-04 21:24 55.07689 -3.04109 25016 ft 443 kts 334°
2026-05-04 21:24 55.10451 -3.06127 24416 ft 427 kts 334°
2026-05-04 21:25 55.13127 -3.08083 23830 ft 409 kts 334°
2026-05-04 21:25 55.15702 -3.09958 23181 ft 394 kts 334°
2026-05-04 21:25 55.18193 -3.11774 22504 ft 382 kts 334°
2026-05-04 21:25 55.20610 -3.13548 21845 ft 371 kts 334°
2026-05-04 21:26 55.22958 -3.15280 21247 ft 361 kts 334°
2026-05-04 21:26 55.25236 -3.16958 20633 ft 351 kts 333°
2026-05-04 21:26 55.27458 -3.18596 20032 ft 342 kts 333°
2026-05-04 21:26 55.29696 -3.19865 19446 ft 338 kts 346°
2026-05-04 21:27 55.32028 -3.20091 18886 ft 337 kts
2026-05-04 21:27 55.34386 -3.19724 18277 ft 340 kts
2026-05-04 21:27 55.36722 -3.19356 17594 ft 334 kts
2026-05-04 21:27 55.39015 -3.18999 16931 ft 328 kts
2026-05-04 21:28 55.41273 -3.18645 16281 ft 323 kts
2026-05-04 21:28 55.43494 -3.18296 15643 ft 318 kts
2026-05-04 21:28 55.45685 -3.17951 15035 ft 314 kts
2026-05-04 21:28 55.47847 -3.17606 14447 ft 310 kts
2026-05-04 21:29 55.49984 -3.17266 13886 ft 307 kts
2026-05-04 21:29 55.52095 -3.16935 13350 ft 299 kts
2026-05-04 21:29 55.54117 -3.16614 13040 ft 285 kts
2026-05-04 21:29 55.56063 -3.16304 12705 ft 278 kts
2026-05-04 21:30 55.57993 -3.15999 12257 ft 280 kts
2026-05-04 21:30 55.59954 -3.15700 11807 ft 285 kts
2026-05-04 21:30 55.61939 -3.15400 11379 ft 286 kts
2026-05-04 21:30 55.63887 -3.15096 10999 ft 276 kts
2026-05-04 21:31 55.67624 -3.14488 10266 ft 269 kts
2026-05-04 21:31 55.69496 -3.14189 9897 ft 270 kts
2026-05-04 21:31 55.71339 -3.13895 9487 ft 262 kts
2026-05-04 21:32 55.73127 -3.13611 9090 ft 254 kts
2026-05-04 21:32 55.74890 -3.13284 8744 ft 256 kts
2026-05-04 21:32 55.76597 -3.12348 8429 ft 259 kts 22°
2026-05-04 21:32 55.78207 -3.10909 8130 ft 259 kts 24°
2026-05-04 21:33 55.79813 -3.09468 7822 ft 259 kts 24°
2026-05-04 21:33 55.81420 -3.08028 7519 ft 258 kts 24°
2026-05-04 21:33 55.83023 -3.06590 7218 ft 258 kts 24°
2026-05-04 21:33 55.84633 -3.05194 6918 ft 256 kts 19°
2026-05-04 21:34 55.86326 -3.04379 6615 ft 247 kts
2026-05-04 21:34 55.87987 -3.03863 6311 ft 237 kts
2026-05-04 21:34 55.89594 -3.03354 5996 ft 234 kts
2026-05-04 21:34 55.90657 -3.03015 5810 ft 233 kts
2026-05-04 21:35 55.92228 -3.02509 5479 ft 225 kts
2026-05-04 21:35 55.93740 -3.02024 5169 ft 216 kts
2026-05-04 21:35 55.95204 -3.01889 4864 ft 206 kts 353°
2026-05-04 21:35 55.96597 -3.02190 4551 ft 198 kts 350°
2026-05-04 21:36 55.97937 -3.02500 4292 ft 190 kts 351°
2026-05-04 21:36 55.99238 -3.02798 4015 ft 187 kts 350°
2026-05-04 21:36 56.00523 -3.03098 3733 ft 185 kts 348°
2026-05-04 21:36 56.01706 -3.03778 3607 ft 172 kts 329°
2026-05-04 21:37 56.02620 -3.04993 3587 ft 160 kts 313°
2026-05-04 21:37 56.03267 -3.06581 3557 ft 158 kts 297°
2026-05-04 21:37 56.03625 -3.08415 3478 ft 156 kts 281°
2026-05-04 21:37 56.03671 -3.10346 3352 ft 156 kts 265°
2026-05-04 21:38 56.03393 -3.12228 3181 ft 159 kts 249°
2026-05-04 21:38 56.02845 -3.13950 2985 ft 160 kts 242°
2026-05-04 21:38 56.02284 -3.15625 2779 ft 158 kts 243°
2026-05-04 21:38 56.01712 -3.17331 2567 ft 158 kts 243°
2026-05-04 21:39 56.01151 -3.18999 2344 ft 153 kts 243°
2026-05-04 21:39 56.00625 -3.20561 2138 ft 145 kts 243°
2026-05-04 21:39 56.00112 -3.22088 1949 ft 141 kts 244°
2026-05-04 21:39 55.99621 -3.23547 1779 ft 135 kts 244°
2026-05-04 21:40 55.99142 -3.24970 1582 ft 133 kts 243°
2026-05-04 21:40 55.98669 -3.26383 1384 ft 133 kts 242°
2026-05-04 21:40 55.98195 -3.27790 1168 ft 132 kts 240°
2026-05-04 21:40 55.97722 -3.29190 974 ft 132 kts 241°
2026-05-04 21:41 55.97252 -3.30593 831 ft 132 kts 240°
2026-05-04 21:41 55.96773 -3.32001 627 ft 134 kts 238°
2026-05-04 21:41 55.96287 -3.33429 463 ft 135 kts 239°
2026-05-04 21:41 55.95806 -3.34866 249 ft 134 kts 239°
2026-05-04 21:42 55.95328 -3.36288 122 ft 129 kts 239°
2026-05-04 21:42 55.94931 -3.37456 111 ft 87 kts 239°
2026-05-04 21:42 55.94771 -3.37940 114 ft 14 kts 238°
2026-05-04 21:42 55.94725 -3.38056 115 ft 9 kts 216°
2026-05-04 21:43 55.94666 -3.38029 112 ft 9 kts 148°
2026-05-04 21:43 55.94626 -3.37984 114 ft 6 kts 148°
2026-05-04 21:43 55.94591 -3.37931 116 ft 7 kts 117°
2026-05-04 21:43 55.94607 -3.37835 114 ft 10 kts 59°
2026-05-04 21:44 55.94647 -3.37719 113 ft 12 kts 59°
2026-05-04 21:44 55.94696 -3.37573 113 ft 15 kts 59°
2026-05-04 21:44 55.94755 -3.37403 115 ft 17 kts 57°
2026-05-04 21:44 55.94816 -3.37222 114 ft 17 kts 58°
2026-05-04 21:45 55.94866 -3.37071 116 ft 11 kts 59°
2026-05-04 21:45 55.94907 -3.36951 115 ft 9 kts 58°
2026-05-04 21:45 55.94928 -3.36857 114 ft 7 kts 101°
2026-05-04 21:45 55.94897 -3.36801 114 ft 7 kts 137°
2026-05-04 21:46 55.94905 -3.36716 112 ft 9 kts 59°
2026-05-04 21:46 55.94940 -3.36614 116 ft 10 kts 59°
2026-05-04 21:46 55.94976 -3.36509 113 ft 9 kts 58°
2026-05-04 21:46 55.94998 -3.36432 116 ft 6 kts 84°
2026-05-04 21:47 55.94980 -3.36399 113 ft 3 kts 147°
2026-05-04 21:47 55.94959 -3.36378 115 ft 3 kts 150°
2026-05-04 21:47 55.94945 -3.36363 116 ft 1 kts 149°
2026-05-04 21:47 55.94942 -3.36359 114 ft 0 kts 149°